Tracking 17264 objects as of 2-September-2015
HD Live streaming from Space Station

Track Soyuz TMA-18M
and Space Station

NANOSAT 1B

Track NANOSAT 1B now!
10-day predictions
NANOSAT 1B is classified as:


NORAD ID: 35685
Int'l Code: 2009-041E
Perigee: 583.9 km
Apogee: 668.1 km
Inclination: 98.1 °
Period: 97.1 minutes
Semi major axis: 6996 km
RCS: 0.248 m2 (medium)
Launch date: July 29, 2009
Source: Spain (SPN)

Nanosat 1B is a small testbed for the Spanish space agency. The satellite, stretching about 20 inches [50 cm] in diameter, will demonstrate basic space technologies.
Your satellite tracking list
Your tracking list is empty





NASA's NSSDC Master Catalog

Two Line Element Set (TLE):
1 35685U 09041E   15244.43084962  .00000653  00000-0  84369-4 0  9991
2 35685  98.1470 190.7024 0060184  14.0862 346.2012 14.83324210329179

Source of the keplerian elements: AFSPC

N2YO: 352